GRACE-2

Last updated on Mon Dec 25 2017 00:19:44 GMT+0000 (Coordinated Universal Time)

1 27392U 02012B 17357.93734954 .20424135 -59216-6 17216-3 0 9996 2 27392 88.9684 292.6153 0002005 198.7136 161.7226 16.52514316887583

Satellite not in orbit